This is the latest recevied weather packets stored in our database for station/object K4ZZR. If no packets are shown the sender has not sent any weather packets the latest 10 day(s).
| Time | Temp. | Humidity | Pressure | Rain* | Wind** | Luminosity | Snow |
|---|---|---|---|---|---|---|---|
| 1778248891 | 27.78° C | 80% | 1015.6 hPa | 0 mm | - | 643 W/m² | - |
| 1778248587 | 27.22° C | 81% | 1015.8 hPa | 0 mm | - | 628 W/m² | - |
| 1778248283 | 26.67° C | 82% | 1015.8 hPa | 0 mm | - | 607 W/m² | - |
| 1778247980 | 26.67° C | 82% | 1015.7 hPa | 0 mm | - | 586 W/m² | - |
| 1778247677 | 26.67° C | 82% | 1015.5 hPa | 0 mm | - | 536 W/m² | - |
| 1778247373 | 26.11° C | 82% | 1015.7 hPa | 0 mm | - | 493 W/m² | - |
| 1778247071 | 26.11° C | 82% | 1015.7 hPa | 0 mm | - | 518 W/m² | - |
| 1778246768 | 26.11° C | 83% | 1015.6 hPa | 0 mm | - | 486 W/m² | - |
| 1778246465 | 26.11° C | 82% | 1015.6 hPa | 0 mm | - | 426 W/m² | - |
| 1778246161 | 25.56° C | 83% | 1015.5 hPa | 0 mm | - | 421 W/m² | - |
| 1778245858 | 25.56° C | 84% | 1015.6 hPa | 0 mm | - | 386 W/m² | - |
| 1778245554 | 25° C | 84% | 1015.4 hPa | 0 mm | - | 257 W/m² | - |
| 1778245251 | 25° C | 84% | 1015.7 hPa | 0 mm | - | 196 W/m² | - |
| 1778244946 | 25° C | 83% | 1015.5 hPa | 0 mm | - | 292 W/m² | - |
| 1778244644 | 25° C | 83% | 1015.4 hPa | 0 mm | - | 223 W/m² | - |
| 1778244342 | 25° C | 83% | 1015.5 hPa | 0 mm | - | 206 W/m² | - |
| 1778244039 | 24.44° C | 83% | 1015.5 hPa | 0 mm | - | 307 W/m² | - |
| 1778243737 | 24.44° C | 84% | 1015.4 hPa | 0 mm | - | 185 W/m² | - |
| 1778243434 | 23.89° C | 85% | 1015.4 hPa | 0 mm | - | 161 W/m² | - |
| 1778243130 | 23.89° C | 84% | 1015.5 hPa | 0 mm | - | 139 W/m² | - |
| 1778242828 | 23.89° C | 84% | 1015.4 hPa | 0 mm | - | 144 W/m² | - |
| 1778242526 | 24.44° C | 83% | 1015.3 hPa | 0 mm | - | 166 W/m² | - |
| 1778242224 | 24.44° C | 83% | 1015.1 hPa | 0 mm | - | 179 W/m² | - |
| 1778241920 | 23.89° C | 83% | 1015 hPa | 0 mm | - | 159 W/m² | - |
| 1778241619 | 23.89° C | 83% | 1015.1 hPa | 0 mm | - | 142 W/m² | - |
* Rain latest hour (hover to see other rain measurements)
** Current wind speed in m/s (hover to see current wind gust speed)